Location: Oberwangen
(47.4286°N, 8.9679°E)
Time: 11:07:03
(UTC+00:00)

Cosmos 1953 Rocket - Pass Details

Date: 25 October 2021
Orbit: 604 x 635 km, 82.5° (Epoch: 26 November)

Event Time Altitude Azimuth Distance (km) Brightness Sun altitude
Rises 18:37:36 0° 351° (N) 2,944 7.3 -24.1°
Reaches altitude 10° 18:39:51 10° 352° (N) 2,029 6.4 -24.5°
Enters shadow 18:43:15 51° 0° (N) 802 4.1 -25.1°
